Theta_e
278 278 277 277 277 276 276 275 275 275 274 274 273 273 273 273 272 272 272 272 273 273 273 273 274 274 274 275 276 276 276 277 276 276 275 275 274 273 273 273 272 271 272 271 272 271 269 268 268 270 271 269 269 269 270 270 270 269 270 272 273 274 274 273 271 272 275 276 276 276 277 278 278 280 281 281 281 283 285 285 285 285 286 286 286
278 277 277 277 276 276 276 275 275 275 274 273 273 272 272 272 272 272 272 272 271 272 273 273 274 274 274 275 275 276 276 277 276 276 275 275 275 275 274 273 272 272 271 271 271 272 270 268 268 268 270 268 268 268 269 269 268 269 269 270 272 273 274 273 271 271 270 274 274 275 276 278 277 279 279 280 281 282 282 282 284 285 285 286 286
277 277 276 276 276 275 275 275 275 274 273 273 273 273 273 272 273 272 271 271 271 272 272 273 273 274 274 275 274 274 275 275 276 275 275 275 275 275 275 274 274 273 271 271 271 270 269 268 269 269 269 267 267 267 268 268 268 267 269 270 269 271 273 273 272 270 270 270 273 273 274 275 275 276 278 280 281 282 281 282 283 284 285 285 286
277 276 276 276 275 275 275 275 274 274 273 274 273 273 273 273 273 272 271 271 271 272 272 272 273 273 274 274 274 274 274 274 274 274 274 275 274 274 275 275 274 274 273 271 269 268 267 267 267 267 268 267 267 266 267 267 267 266 266 267 269 269 270 272 272 271 271 270 271 272 273 273 274 276 277 278 280 281 282 282 283 283 283 285 285
277 276 276 275 275 275 274 274 274 273 274 274 273 273 273 273 272 271 271 271 271 272 272 273 272 272 273 273 273 273 273 273 272 273 273 273 274 274 274 274 274 274 274 273 272 269 268 267 267 267 266 266 265 265 266 266 266 266 266 266 267 268 270 270 270 271 270 269 269 271 272 272 274 275 277 277 277 278 279 279 280 282 283 284 285
276 276 275 275 275 274 274 274 274 274 274 273 273 273 273 272 271 271 270 270 272 272 272 272 272 272 272 272 272 272 271 271 270 271 272 272 272 272 272 272 272 273 273 273 271 270 268 267 267 267 266 265 265 265 264 264 264 264 264 266 266 267 267 268 268 269 269 269 269 269 271 271 273 274 276 277 276 275 276 279 280 282 282 283 284
277 275 275 274 274 274 274 275 275 275 274 273 273 273 272 272 271 269 270 270 271 271 270 271 272 272 271 271 271 271 270 269 268 268 268 269 270 270 270 270 269 270 269 269 268 268 267 267 266 267 265 265 264 264 264 264 265 265 265 265 265 265 266 267 268 268 268 268 268 269 270 272 273 272 275 276 276 275 275 275 277 280 281 282 282
276 275 274 274 274 274 275 275 275 274 274 274 274 274 273 272 270 269 269 269 270 270 270 270 270 270 269 269 269 268 267 265 266 266 266 266 267 267 268 268 268 268 268 267 267 266 266 266 266 266 265 264 263 262 263 264 264 263 265 264 267 267 268 268 268 268 267 267 267 268 270 271 273 274 275 275 274 275 277 277 276 277 278 281 282
276 275 273 273 274 275 275 274 273 273 273 273 272 272 271 270 270 270 270 271 271 270 270 270 269 268 268 269 268 266 265 264 264 264 264 265 265 265 266 267 267 267 267 267 266 265 264 264 264 264 266 270 270 270 269 269 267 266 267 268 268 268 268 268 268 268 267 268 268 269 268 268 269 270 270 271 271 271 274 275 274 276 278 279 282
277 275 274 274 274 274 274 273 273 272 272 271 271 270 269 269 268 269 270 270 270 269 267 267 266 265 266 267 266 264 264 263 267 268 268 267 265 266 266 266 265 265 265 265 266 266 266 266 267 270 270 270 271 271 271 271 271 270 269 269 268 268 268 267 267 267 267 266 266 267 267 268 269 270 271 272 274 274 273 273 274 276 278 278 280
276 275 274 275 275 274 273 273 273 273 273 272 271 271 271 270 270 269 269 269 268 268 268 267 266 267 266 265 264 263 262 263 267 270 271 271 270 268 268 268 267 266 266 266 266 267 268 269 269 270 270 270 270 271 271 271 271 271 271 271 271 269 267 267 267 267 266 266 267 267 266 266 267 268 268 269 272 271 271 272 272 273 272 272 271
275 275 275 274 274 274 273 273 273 273 273 272 272 271 271 270 270 270 269 268 268 268 267 266 266 266 266 264 263 262 263 266 269 270 271 271 271 269 269 268 268 268 268 268 268 268 267 267 268 268 268 268 268 269 270 271 271 271 271 271 271 271 272 270 268 267 267 266 266 266 266 266 267 268 268 270 270 271 272 272 273 273 273 273 274
274 274 274 274 273 273 273 272 272 272 272 271 271 271 270 270 270 269 268 268 268 267 266 266 265 265 265 263 262 262 261 266 269 270 270 271 271 270 268 268 268 268 268 268 268 268 267 267 267 268 269 270 270 269 268 269 270 270 270 270 270 270 272 273 273 270 269 268 267 267 267 267 267 268 269 269 270 268 269 269 271 272 273 273 273
274 273 273 273 273 273 273 272 272 271 271 271 270 270 270 269 269 268 268 268 267 266 265 265 265 264 263 263 262 261 261 264 268 269 270 270 271 270 268 268 268 267 267 267 267 267 267 267 266 266 266 266 265 265 266 267 267 267 266 265 265 268 269 270 270 270 270 269 268 267 269 269 267 268 269 270 268 267 267 267 269 270 270 270 272
273 273 272 272 272 272 272 271 271 271 271 270 270 269 269 268 268 268 267 267 266 265 264 264 264 265 263 262 261 261 261 266 268 269 269 270 270 270 268 268 267 267 267 267 267 267 267 267 267 266 267 267 267 267 266 265 265 265 264 263 263 263 263 264 264 265 266 266 265 265 266 267 266 267 267 268 267 268 268 268 269 270 271 273 272
272 272 272 272 271 271 271 270 270 270 270 269 269 269 268 267 266 267 266 266 265 265 265 264 264 263 263 262 261 261 261 267 268 269 269 270 270 268 267 266 266 266 265 266 266 266 266 266 265 264 264 264 267 268 268 267 265 263 261 262 262 262 263 266 269 270 268 266 265 265 265 266 269 267 267 267 267 267 269 269 270 269 269 268 267
271 271 270 270 271 271 271 270 270 269 269 268 268 267 267 267 266 266 265 265 265 264 264 264 264 264 263 263 262 261 261 265 268 268 269 269 268 266 266 265 265 264 264 265 265 265 264 263 262 262 262 262 266 268 270 268 266 265 264 263 264 264 264 265 269 271 272 273 273 274 274 274 274 275 275 275 272 270 269 267 267 268 267 265 266
270 270 270 270 270 270 270 269 268 268 266 266 266 267 266 266 265 265 265 264 264 264 264 264 264 264 263 262 262 262 261 263 266 267 268 268 267 265 265 264 264 264 264 264 264 264 265 266 266 265 265 264 267 268 270 268 265 265 265 265 264 264 265 266 266 267 271 272 273 273 274 274 274 275 275 276 276 275 271 268 269 270 267 267 265
269 269 269 269 269 269 269 268 266 266 267 266 266 265 265 264 264 265 264 264 264 264 264 263 263 263 262 262 264 263 262 263 265 267 267 268 267 265 264 263 262 263 263 263 263 263 263 265 266 266 265 265 268 269 269 268 266 265 265 264 263 263 264 264 264 263 263 263 264 265 266 268 268 268 269 270 270 270 269 268 268 268 267 268 268
269 269 269 269 269 269 268 267 267 266 265 264 264 264 264 263 263 263 263 263 263 263 263 262 262 262 262 262 262 262 260 259 261 266 267 268 268 265 265 263 262 262 263 262 262 263 264 264 265 266 267 268 269 270 270 271 267 266 266 264 264 263 265 264 264 264 263 264 264 264 265 265 265 266 266 266 267 269 269 269 268 268 267 267 268
268 268 267 267 267 267 267 266 265 265 264 263 264 264 263 263 262 262 262 262 262 261 261 261 261 260 261 262 261 259 259 259 260 264 266 267 268 266 264 263 263 263 262 262 262 261 262 262 263 265 266 267 268 269 270 270 270 268 267 266 266 267 268 266 266 267 265 265 266 266 266 266 266 266 266 267 268 268 268 268 268 268 268 267 266
267 266 266 266 266 266 265 265 265 265 264 263 263 262 263 262 262 261 261 261 260 260 260 260 259 259 260 260 260 258 260 262 260 262 265 266 267 267 264 264 264 263 262 262 261 261 261 262 262 264 266 267 267 269 270 270 270 268 268 270 271 271 269 268 268 268 267 267 267 267 266 265 265 266 267 267 268 269 269 269 270 270 270 269 268
265 265 265 265 264 264 264 264 264 264 264 262 261 261 261 261 261 261 260 260 259 259 258 258 258 258 258 258 258 258 259 260 262 261 263 264 266 267 266 265 266 265 263 262 261 262 262 262 263 265 266 267 268 269 270 269 269 268 271 271 271 270 270 268 267 266 265 266 266 266 267 267 266 266 267 267 268 269 269 270 270 271 272 272 272
263 263 263 263 263 263 263 263 263 263 263 262 261 260 260 261 261 260 260 259 258 258 258 258 257 257 256 257 258 258 259 258 260 262 262 263 264 266 267 266 266 264 264 263 263 263 262 262 263 265 266 268 269 269 270 269 268 270 270 270 269 269 268 266 264 263 265 265 266 266 267 268 268 268 268 269 269 270 270 271 271 272 272 272 273
261 261 261 261 261 262 262 262 262 262 261 261 260 260 259 260 259 259 259 259 258 257 257 257 257 257 256 255 254 255 256 257 256 260 262 262 263 264 264 264 264 264 262 262 263 263 264 265 266 266 267 268 268 268 268 268 268 268 268 268 268 266 264 262 262 261 262 264 265 266 267 268 268 269 269 269 271 272 271 271 271 271 272 273 273
260 260 260 261 261 261 261 261 261 261 260 261 260 260 259 259 258 258 258 258 258 257 257 257 256 255 255 254 254 254 254 254 255 255 260 261 261 262 263 263 263 263 263 263 263 264 265 265 265 265 265 265 265 265 264 265 266 267 267 267 266 263 261 260 261 262 262 263 265 265 265 264 263 263 264 264 263 263 264 265 265 267 268 269 269
259 259 259 259 260 260 260 260 260 260 259 260 260 259 259 258 258 258 258 257 257 257 256 256 255 254 254 253 253 254 254 254 254 254 255 256 257 260 260 261 262 262 261 262 263 263 264 264 264 264 264 265 265 266 266 266 266 266 266 265 264 263 263 263 263 263 264 263 264 264 265 265 265 265 263 262 263 263 263 266 266 266 267 268 268
258 258 258 259 259 260 260 260 260 259 259 259 259 259 259 258 257 257 257 257 256 255 255 254 254 254 253 253 253 253 254 254 254 254 254 255 256 256 256 258 256 256 257 258 259 261 262 263 263 262 263 263 263 262 261 261 262 263 262 261 261 263 265 267 267 263 261 260 260 262 262 262 262 263 263 262 263 264 264 265 266 267 268 268 268
258 257 257 258 259 260 260 260 259 259 258 257 258 258 257 257 257 257 257 257 256 255 254 254 255 253 253 253 253 253 253 253 253 259 259 260 259 258 255 255 256 256 259 261 260 261 260 258 258 259 259 260 260 260 260 260 261 261 261 261 262 261 259 258 257 259 261 261 261 261 261 259 259 259 261 260 261 262 263 264 266 266 268 268 267
257 256 257 257 258 259 259 259 258 257 257 257 257 257 260 261 260 257 256 259 260 260 260 256 256 255 255 255 255 254 254 255 259 260 261 261 261 261 261 261 261 260 261 261 261 260 259 256 256 257 258 259 259 260 260 260 260 260 260 263 263 260 259 258 257 257 258 258 258 258 258 258 258 259 259 261 261 261 262 265 263 263 265 265 266
257 256 256 257 258 258 258 258 257 257 257 257 257 256 256 258 261 261 260 260 260 260 260 260 260 259 258 256 257 259 258 258 259 259 260 260 261 260 260 260 261 261 261 260 259 258 256 255 255 257 258 259 259 260 261 261 261 259 258 258 258 259 260 258 257 258 258 257 257 257 258 258 260 261 262 262 262 261 258 259 260 260 262 264 264
256 255 256 256 257 257 257 257 257 256 256 256 256 255 255 254 255 259 260 259 259 259 259 259 259 259 259 258 257 256 257 258 258 258 259 259 259 259 259 260 260 260 260 260 257 256 255 255 256 256 257 257 259 260 261 261 261 258 256 256 256 256 256 256 255 253 255 254 255 257 258 258 260 261 262 262 260 258 257 257 257 259 261 262 263
255 255 255 256 256 257 257 256 256 256 256 256 255 254 253 253 252 252 255 258 258 257 258 258 258 258 258 258 258 258 257 257 257 258 258 258 257 257 257 259 259 259 259 257 255 254 254 255 255 256 257 258 259 260 261 261 260 258 256 255 254 254 254 255 255 254 255 255 255 256 257 258 259 260 260 259 258 258 257 258 258 258 259 259 260
255 255 255 255 255 255 255 256 256 256 256 255 255 254 254 253 252 251 251 251 253 255 256 256 256 256 256 256 256 256 257 257 256 256 256 256 257 257 256 256 258 258 258 256 255 255 255 255 256 257 259 259 260 261 261 261 259 258 256 254 253 252 253 251 253 255 255 256 256 256 258 259 260 259 258 256 256 255 257 257 256 256 257 257 258
254 255 256 257 255 255 255 256 256 256 255 255 254 253 253 253 253 252 251 250 250 250 250 251 254 255 254 254 255 255 255 255 255 255 255 256 256 256 256 254 252 253 254 254 255 255 255 255 256 257 258 260 261 261 261 259 257 256 255 254 253 252 253 254 253 253 253 252 253 254 255 256 256 256 256 257 255 255 255 254 254 255 256 256 256
254 254 254 255 255 256 256 256 256 255 254 253 253 253 253 252 252 251 251 250 249 249 249 249 249 253 254 254 254 254 255 255 254 254 255 255 255 255 252 251 251 251 252 253 254 256 257 257 257 258 258 259 260 260 259 259 259 257 255 254 254 252 252 252 253 252 252 251 252 254 256 254 254 255 254 255 254 256 253 253 253 253 254 255 255
253 254 254 255 255 255 256 256 255 254 254 254 253 252 252 252 251 250 249 247 248 248 248 248 248 248 252 251 253 254 254 253 253 253 254 255 256 255 253 252 252 252 253 253 253 254 254 255 256 256 256 256 257 258 259 258 257 256 258 253 252 253 251 250 251 253 251 251 251 251 251 253 254 254 254 255 253 252 250 251 252 254 254 254 255
253 254 254 255 255 255 255 254 254 255 253 253 252 251 250 249 248 248 248 247 248 247 246 246 250 248 246 247 252 250 250 252 252 251 252 252 252 251 251 251 252 251 252 252 252 253 253 254 254 254 255 255 256 257 257 258 258 256 255 253 253 253 258 255 255 251 250 250 250 251 251 253 254 254 254 254 253 251 251 252 251 250 251 252 251
253 254 255 255 255 252 252 253 252 252 251 251 251 250 250 248 247 247 246 245 245 245 246 246 246 246 246 247 246 248 248 245 245 246 248 248 249 249 250 250 251 251 252 252 252 253 252 253 253 253 254 255 255 255 256 257 258 258 256 254 253 252 253 251 250 249 249 249 249 250 251 252 254 254 253 253 253 251 250 250 250 250 250 250 250
252 253 254 254 253 253 252 251 250 250 250 249 248 248 248 247 246 246 245 244 244 245 245 245 245 245 247 247 247 247 245 245 245 246 247 247 248 249 249 249 250 250 250 251 251 251 252 253 254 254 255 255 255 255 256 256 256 255 254 255 254 253 252 250 250 252 251 249 249 250 251 253 253 253 252 251 250 249 250 250 250 251 251 251 251
251 252 253 253 253 253 251 251 250 249 249 248 248 247 246 247 247 247 245 245 245 245 246 245 244 244 247 250 251 251 246 244 244 245 247 248 248 248 249 249 250 249 250 251 251 251 252 253 253 253 254 254 256 256 256 256 256 255 254 253 253 253 251 249 251 251 251 249 249 249 250 252 252 252 251 251 254 251 250 251 251 252 252 253 253
250 250 250 251 252 251 251 251 251 251 249 249 247 247 248 247 246 245 245 245 246 246 246 245 244 245 249 251 251 251 247 245 246 246 247 247 248 248 249 249 250 250 250 250 250 250 251 252 252 253 253 254 254 254 255 255 255 255 253 252 252 252 252 250 248 249 249 249 249 249 249 250 251 252 253 255 252 251 250 250 251 252 252 252 252
249 249 249 250 251 251 250 250 250 249 248 247 247 249 248 246 245 245 245 246 245 245 244 244 244 245 246 249 249 249 247 246 247 246 246 246 247 248 248 249 249 250 250 250 250 251 252 252 252 253 253 253 253 253 253 254 254 253 252 250 250 252 252 250 248 248 247 248 247 249 248 249 250 250 250 251 252 251 251 250 251 252 252 252 252
248 249 249 250 250 250 250 250 249 249 247 248 248 247 247 246 245 245 244 244 244 244 244 244 244 245 244 246 247 246 245 245 245 244 245 246 247 247 248 248 249 249 249 250 250 251 252 252 252 253 253 253 253 251 252 253 252 251 250 249 249 251 251 251 250 248 248 247 247 248 248 249 250 250 250 251 251 250 250 250 250 251 251 251 251
247 248 248 248 248 248 248 248 248 247 247 247 245 245 246 245 245 245 245 244 245 244 244 244 244 244 244 243 243 243 243 243 245 246 245 245 245 246 247 248 249 249 249 250 250 251 251 251 251 252 252 252 252 251 252 251 250 249 249 249 249 248 248 248 249 249 248 247 247 248 248 248 248 249 250 250 250 249 249 249 250 250 250 250 250
247 247 248 247 247 247 247 246 247 246 245 245 244 243 244 244 244 244 245 244 244 244 243 243 243 243 243 242 243 244 243 242 243 244 245 245 245 246 247 248 248 249 249 249 250 250 251 251 251 251 251 251 251 251 251 251 250 249 248 248 249 249 249 249 249 249 249 248 247 247 247 247 248 249 250 250 249 249 248 248 248 249 249 248 249
247 247 247 247 246 247 247 247 246 246 245 245 244 244 244 244 243 245 245 245 244 244 243 242 242 241 242 242 242 241 243 243 243 243 244 245 245 246 246 247 248 248 249 249 250 250 251 251 251 250 250 250 250 250 250 250 249 249 248 247 247 247 247 247 248 248 248 247 246 247 246 248 248 249 250 250 249 249 248 247 247 248 248 248 248
246 246 246 246 246 245 245 245 246 246 246 245 244 244 244 244 243 244 243 243 243 243 242 242 241 241 242 242 243 242 243 242 243 244 244 245 244 245 245 246 247 248 248 249 249 250 250 250 250 250 250 250 250 250 249 249 248 247 247 246 246 246 247 248 247 247 247 246 246 246 247 248 248 249 249 249 249 248 248 247 247 247 247 247 248
246 245 245 245 245 245 244 245 245 244 244 244 244 244 244 243 243 243 243 243 243 243 242 242 241 241 241 241 242 242 242 243 242 242 242 243 243 244 245 246 247 247 248 248 249 250 250 250 250 250 250 250 249 249 249 247 247 246 245 244 246 248 248 248 248 248 249 247 247 247 247 247 248 248 249 249 249 249 248 248 247 247 247 247 248
244 244 244 244 244 244 244 244 244 244 244 243 243 243 243 243 242 243 243 243 243 242 242 242 242 241 241 241 242 241 242 242 241 241 242 243 243 243 245 245 246 247 247 248 249 250 250 250 250 250 250 249 249 249 248 247 246 245 244 245 247 248 248 248 248 249 248 246 246 246 247 247 247 248 248 248 248 248 248 248 248 248 248 248 248
244 244 243 243 243 243 243 242 242 242 242 242 242 242 242 242 242 242 242 242 241 241 242 241 241 241 241 240 242 241 241 241 241 242 242 241 241 242 243 244 245 246 247 248 249 249 250 250 250 250 250 249 249 249 247 246 245 245 247 247 247 248 248 248 247 249 249 248 245 246 247 246 246 247 247 248 248 248 248 248 248 248 247 247 247
Wind_Speed
10 10 9 9 9 10 9 8 8 8 8 8 7 7 5 5 4 4 5 7 6 6 6 7 8 9 9 9 9 9 8 7 6 6 7 6 6 7 7 7 6 5 5 6 5 4 2 2 4 3 3 2 2 4 3 3 3 3 3 3 3 4 4 6 8 9 5 4 7 7 8 9 6 3 5 6 7 7 7 6 7 7 8 7 7
9 10 9 9 9 10 10 8 9 8 7 7 6 5 4 4 4 6 7 5 3 4 6 7 7 8 9 9 10 10 10 9 8 6 6 6 7 6 6 6 6 6 6 5 4 5 5 4 2 2 3 2 2 2 2 3 4 4 4 3 3 4 4 6 6 8 8 6 6 8 8 6 6 5 5 6 6 6 8 8 7 6 6 7 6
9 9 9 9 9 8 8 8 7 7 7 6 7 8 6 5 6 7 5 3 3 3 5 7 8 9 9 8 7 7 7 7 6 6 5 6 6 6 6 6 6 6 5 5 5 5 4 5 5 4 3 2 2 3 2 2 3 4 5 4 4 4 4 4 7 8 8 7 7 7 6 8 8 7 6 5 6 7 8 7 7 7 5 6 7
8 8 8 9 9 8 9 7 7 7 8 7 8 6 5 5 5 5 4 2 3 4 5 7 8 9 8 8 7 6 6 6 7 6 7 6 7 7 7 7 7 7 6 4 4 4 4 4 4 4 4 5 5 4 2 3 4 4 4 4 5 6 5 6 6 7 7 8 5 7 7 9 9 9 7 8 6 4 5 7 6 7 8 6 6
9 9 9 9 8 8 7 7 7 7 8 8 8 6 5 5 4 4 3 2 3 5 6 7 8 9 7 7 7 6 6 6 7 7 7 6 7 7 7 7 6 6 5 4 4 3 3 4 4 3 3 4 4 4 4 5 4 4 4 4 4 5 5 6 7 6 7 8 8 7 9 9 9 9 7 6 5 6 6 7 7 7 7 6 5
8 9 8 8 7 8 7 6 7 8 9 8 7 6 5 4 4 4 2 2 3 6 7 7 7 8 8 8 7 7 6 5 4 6 7 7 7 6 6 6 6 5 4 4 3 2 3 3 3 3 3 4 4 4 3 4 4 4 4 5 4 5 8 9 8 9 8 9 8 8 9 9 9 7 7 6 6 7 7 6 6 6 6 7 6
9 8 7 7 6 6 7 8 9 8 6 5 4 3 3 3 4 3 2 2 4 5 5 6 7 7 7 7 7 7 5 5 5 6 6 6 6 6 6 6 5 4 3 3 3 3 3 3 3 3 4 4 4 4 4 5 4 5 5 5 4 4 6 7 8 8 8 8 7 7 9 9 8 7 5 8 10 9 9 8 6 4 5 6 7
8 6 5 5 5 6 7 8 7 5 3 3 4 4 4 3 3 2 2 3 5 6 5 7 7 5 5 5 6 4 4 4 4 5 5 6 6 7 7 7 6 6 5 4 4 4 4 4 4 4 4 4 4 4 4 5 4 5 5 4 5 8 8 7 6 6 8 8 8 8 6 7 7 6 6 6 7 5 4 5 7 5 5 5 7
9 7 5 5 5 6 6 4 3 2 1 1 2 3 3 3 3 3 3 5 6 4 5 6 5 4 5 6 6 4 4 4 4 4 5 6 6 6 7 7 7 7 6 6 5 4 4 4 4 4 4 7 9 9 9 10 7 7 7 6 7 8 8 6 5 6 7 8 9 7 8 8 7 9 7 6 7 9 8 8 9 8 7 7 5
10 6 6 6 5 5 4 3 2 2 2 3 4 3 3 3 3 4 6 6 5 4 4 4 4 4 5 6 5 4 4 4 5 11 13 9 7 8 8 8 6 6 6 7 7 7 7 8 8 13 15 14 15 17 18 18 18 12 7 5 6 6 6 6 6 6 6 8 8 8 7 6 6 6 7 6 6 7 8 7 7 6 5 5 4
8 6 6 5 5 4 3 3 2 3 4 5 4 5 5 4 5 6 6 5 5 5 5 5 4 4 5 5 5 5 4 4 9 17 19 21 14 9 8 8 9 10 9 9 9 9 8 7 7 10 12 15 13 17 16 17 17 18 19 18 14 9 7 8 8 8 8 8 8 8 7 9 8 10 11 11 9 9 9 9 8 8 6 8 8
8 7 6 5 5 4 3 3 4 5 5 6 6 5 5 5 6 6 5 5 5 4 5 4 5 5 6 5 5 5 4 7 17 19 19 19 18 11 9 9 9 8 8 8 7 7 9 10 10 9 9 9 8 8 12 16 18 18 17 17 18 19 18 12 9 8 8 8 9 8 7 8 7 7 6 7 7 9 8 9 9 8 7 7 7
7 7 6 5 4 4 4 4 5 5 5 5 5 5 5 5 5 5 5 4 4 4 5 5 5 5 5 6 6 5 5 8 18 19 20 20 20 17 9 8 8 7 6 7 7 7 6 6 7 7 6 10 9 6 5 6 10 15 17 19 20 20 21 23 22 15 10 12 11 11 9 7 9 7 6 8 10 10 10 9 8 9 8 8 6
8 8 7 5 4 4 4 5 6 7 6 6 5 5 5 5 4 4 3 4 5 4 4 4 4 5 5 6 6 4 5 7 17 20 20 21 20 17 10 9 8 8 9 9 9 9 8 7 5 4 3 4 3 4 4 6 7 7 6 5 4 7 10 12 13 16 14 9 9 10 7 4 6 5 4 5 8 10 12 11 11 10 9 8 10
7 7 7 6 6 6 6 6 7 8 7 6 5 4 4 4 4 3 3 3 4 4 4 4 5 6 5 5 5 5 5 10 18 20 20 20 19 16 9 9 7 6 5 5 5 6 7 8 8 8 6 6 3 4 4 4 4 4 5 6 6 5 6 7 6 7 9 10 11 12 11 8 8 9 6 7 9 11 11 12 13 12 13 11 11
7 7 7 7 7 7 7 8 8 8 7 5 4 4 3 2 2 1 2 2 2 2 3 3 5 5 5 5 5 6 5 14 19 19 20 19 19 10 7 5 5 5 5 6 6 6 6 6 6 6 6 5 10 17 16 11 8 7 7 8 8 8 9 10 15 17 14 12 11 13 12 12 17 14 13 12 11 11 11 12 13 12 11 11 13
7 7 7 7 8 8 8 8 9 7 5 4 3 3 2 1 0 0 2 2 3 3 4 4 4 5 5 5 6 6 4 11 18 19 19 19 15 7 5 4 5 5 6 5 5 5 4 4 5 6 5 5 9 15 18 17 11 11 11 12 11 11 10 8 16 21 21 23 25 26 26 26 27 28 26 27 18 12 10 11 13 11 12 11 11
8 9 9 9 7 7 7 8 7 5 3 2 2 1 0 0 1 1 2 3 4 4 4 5 6 6 6 6 6 6 6 8 16 18 19 18 15 9 6 6 6 7 7 7 7 7 8 15 13 9 9 9 14 20 20 16 12 11 11 11 12 11 9 6 7 10 20 23 23 24 24 23 24 25 23 22 22 18 10 10 9 11 12 11 12
10 10 9 7 7 7 7 6 3 2 2 2 1 1 1 1 1 1 2 3 4 4 4 5 5 5 5 6 10 12 7 7 14 16 18 18 14 8 7 6 7 7 7 7 6 6 6 9 17 15 11 11 19 19 20 16 12 11 10 11 13 14 12 9 10 10 9 9 10 11 13 15 14 12 12 18 19 17 10 9 9 7 6 9 10
10 7 7 7 8 9 5 2 2 2 2 2 1 1 2 2 2 3 3 2 3 3 4 5 6 5 5 5 6 6 5 4 5 16 19 20 20 11 6 6 7 7 7 6 6 6 6 6 9 15 18 19 19 20 20 21 15 12 11 12 13 14 9 10 11 10 12 12 12 11 12 11 10 9 9 9 10 10 11 9 7 7 9 12 10
8 8 9 9 8 5 4 4 4 3 2 2 1 1 1 2 2 3 3 2 3 4 5 5 5 5 5 6 6 5 4 5 7 17 20 20 20 17 8 7 6 6 6 6 5 5 5 6 5 11 17 18 18 19 20 21 19 12 11 9 10 11 12 10 13 18 14 13 13 11 10 9 9 9 9 9 8 8 8 10 9 10 10 11 11
9 8 8 7 7 7 6 6 5 5 4 2 1 2 2 2 2 3 3 3 5 6 6 6 6 6 6 7 6 5 6 11 8 12 19 20 20 20 10 6 7 7 7 7 6 6 6 6 5 10 16 17 18 19 21 20 21 12 12 18 21 22 15 12 11 9 8 8 8 9 9 8 8 8 9 9 8 9 9 10 11 11 11 11 11
7 7 7 7 7 7 7 6 7 6 4 2 2 3 3 3 3 3 4 5 6 7 6 6 7 7 7 6 6 6 7 8 14 11 15 18 19 18 18 13 15 11 7 7 7 8 7 7 8 14 18 19 19 20 20 22 18 13 20 21 21 22 18 8 4 4 5 6 8 9 10 9 8 8 9 8 8 9 9 10 12 13 12 12 13
7 8 9 9 9 9 8 8 7 6 4 3 3 3 4 4 4 4 5 5 5 6 6 6 7 8 8 8 8 8 8 7 9 13 10 14 16 18 18 18 17 10 8 8 7 7 7 8 9 17 20 21 21 20 19 18 13 19 20 21 19 15 6 4 3 4 6 7 8 9 9 8 8 8 7 7 9 9 10 10 11 13 14 12 13
8 9 10 10 10 9 9 8 7 5 3 2 3 4 4 3 5 5 5 5 6 6 6 6 6 6 5 5 5 4 5 5 4 7 12 13 15 16 17 17 16 16 10 7 7 5 9 15 17 18 19 20 21 21 17 17 18 17 18 17 14 5 3 2 5 4 5 7 7 8 7 7 7 6 5 4 4 5 5 6 6 7 8 11 12
9 9 9 9 10 10 10 8 6 4 3 4 5 4 4 4 4 4 4 5 5 6 6 5 5 4 5 4 3 5 5 4 6 5 5 7 9 13 14 13 13 14 12 9 13 16 18 18 20 20 19 18 14 11 9 9 14 19 18 15 7 5 3 4 5 6 7 7 8 6 5 3 3 4 3 2 3 4 4 4 5 6 7 8 7
9 9 9 10 10 10 9 6 5 3 3 3 4 4 4 4 4 4 5 5 5 4 5 3 3 3 3 4 4 5 5 5 5 4 5 6 5 6 6 5 10 11 8 7 7 7 9 10 10 14 14 19 20 19 16 14 11 9 8 6 5 5 6 7 7 7 7 5 5 4 5 5 5 5 6 6 6 5 3 5 5 6 6 7 9
8 9 10 10 9 9 8 8 7 5 4 4 4 4 3 3 4 4 4 4 3 2 1 3 4 4 5 5 5 5 6 6 6 6 6 4 5 6 4 4 4 4 6 7 8 9 7 8 9 7 7 7 7 5 4 4 7 8 7 6 6 7 9 12 10 4 3 4 5 5 5 6 7 7 7 6 6 6 5 6 5 7 6 7 8
8 9 9 9 9 8 6 6 5 4 3 3 3 2 3 3 3 2 1 2 1 1 2 4 5 3 4 5 5 5 5 5 4 7 9 11 9 6 3 3 3 5 8 14 13 11 8 5 6 7 6 6 5 5 5 5 6 7 8 7 7 8 7 1 2 6 6 5 6 7 7 5 6 4 5 4 4 5 5 5 6 6 6 6 9
8 8 8 8 9 8 6 5 4 3 3 4 4 4 6 9 6 2 3 6 9 10 8 4 4 4 4 5 4 6 7 7 12 18 18 18 19 19 17 17 16 13 15 20 15 10 7 4 4 5 6 6 7 8 8 7 6 7 7 8 8 7 6 4 3 4 3 2 2 2 4 4 5 6 6 6 6 6 6 6 5 5 5 6 8
8 8 7 7 9 9 7 7 5 4 4 4 4 3 2 3 7 9 7 7 8 10 11 13 15 14 10 7 7 16 17 19 20 19 20 19 19 18 18 17 17 17 16 12 8 6 4 3 3 4 6 7 8 9 9 8 7 8 8 4 2 3 2 1 1 2 2 1 2 3 4 5 6 6 7 7 7 7 6 4 4 4 5 6 8
8 8 7 7 9 9 7 6 5 4 4 4 4 3 2 2 3 5 7 8 8 9 12 14 16 15 16 14 11 8 12 15 17 17 18 18 17 16 16 15 15 15 15 15 9 7 5 5 6 7 8 9 9 9 9 8 7 7 4 2 1 0 1 1 0 1 1 2 4 6 6 6 6 7 8 7 7 6 5 6 5 5 6 6 8
9 8 8 8 7 8 7 6 5 4 5 5 4 3 2 1 2 3 4 7 11 12 12 13 14 15 16 17 18 16 15 14 16 17 17 16 16 14 15 16 16 16 16 10 7 7 5 5 7 8 9 9 9 10 10 8 7 6 5 4 2 1 1 1 2 0 1 3 3 5 6 6 7 8 8 7 6 6 6 6 6 6 6 7 8
9 7 7 8 8 7 7 7 6 6 5 4 1 0 0 1 2 2 4 4 4 6 8 10 13 15 15 16 15 14 13 13 14 16 17 16 17 16 15 12 15 17 14 9 7 7 6 7 8 8 8 9 9 10 9 8 6 5 3 3 3 2 2 2 1 2 3 4 5 4 4 5 6 6 6 6 5 5 5 7 6 6 6 7 8
8 9 14 11 7 7 7 7 7 6 4 1 0 0 0 1 2 3 4 5 5 5 5 4 6 10 10 10 11 12 12 14 15 14 15 16 17 17 16 9 8 6 7 7 8 8 8 8 8 9 9 8 6 8 8 6 4 3 3 3 2 2 1 1 3 3 4 3 3 4 5 5 6 6 6 6 6 6 6 6 6 5 6 6 6
8 8 8 10 9 7 7 6 6 3 1 2 3 2 2 3 5 5 4 3 4 5 4 4 4 6 14 13 12 12 13 12 12 15 17 18 17 16 9 6 6 6 7 7 7 7 6 6 7 8 7 6 5 6 5 2 0 1 2 2 2 2 2 2 3 1 1 1 3 3 5 5 6 6 5 6 5 6 7 6 6 5 5 7 6
8 9 8 8 7 5 6 7 4 2 2 2 1 2 3 4 5 3 4 3 4 4 5 4 4 5 6 4 8 10 10 11 14 17 17 15 15 9 5 6 6 6 6 6 6 5 5 5 5 4 5 5 5 6 6 6 3 1 2 2 2 1 2 3 2 1 2 3 4 4 4 6 5 5 6 6 6 6 5 4 4 6 6 6 6
9 9 8 9 7 5 5 5 4 3 0 1 2 3 3 3 2 2 4 4 4 4 4 4 5 6 5 5 5 4 6 9 13 12 11 11 9 6 6 6 5 3 5 5 5 5 5 6 5 6 6 6 6 5 5 5 6 4 1 3 2 3 4 2 2 2 2 4 4 5 4 5 5 4 4 4 6 4 6 4 2 4 3 4 2
6 11 14 9 7 4 4 4 4 3 3 3 4 4 5 3 2 2 3 3 3 3 5 5 5 5 4 2 3 3 4 3 4 5 6 7 7 6 6 6 6 6 6 6 5 5 5 6 6 6 6 6 6 5 5 5 5 6 4 1 2 3 4 3 4 4 3 3 3 3 3 3 5 4 4 5 5 4 1 1 1 2 2 2 2
9 8 8 12 7 6 6 5 4 4 6 4 4 3 2 3 2 3 3 3 3 4 5 5 4 3 4 2 3 3 2 3 3 4 5 6 6 6 5 6 6 6 6 6 6 6 5 5 5 6 6 5 6 6 5 4 4 5 2 0 1 3 4 4 2 0 1 1 1 3 3 4 3 5 2 2 1 1 0 1 1 1 0 0 1
8 9 8 9 11 9 7 6 6 4 5 5 3 2 2 3 3 3 2 3 3 4 4 5 4 3 3 7 12 11 2 1 3 4 6 6 5 5 5 5 5 5 6 6 6 6 5 5 5 6 6 5 5 5 5 5 5 5 5 4 1 1 1 1 0 1 0 1 1 1 2 2 3 2 1 1 1 2 2 0 1 0 1 1 2
8 9 9 9 9 8 7 7 6 6 5 5 2 2 3 3 1 1 4 4 6 6 5 4 3 3 7 14 12 11 5 2 4 6 5 5 4 4 4 5 5 5 5 5 6 6 6 6 6 5 6 6 5 4 5 5 6 6 5 3 1 1 1 2 2 1 1 1 0 0 1 1 1 1 0 1 1 2 1 1 1 1 2 2 3
8 9 9 10 8 7 6 6 5 5 4 3 1 2 3 2 2 5 5 5 4 4 3 4 5 4 4 7 8 8 3 4 5 4 4 5 5 5 5 5 5 5 5 6 6 5 6 6 5 5 5 5 4 5 5 5 5 5 5 4 2 0 1 1 1 1 2 1 1 0 0 1 1 0 0 2 4 3 0 1 0 2 2 3 3
8 9 9 9 8 7 7 6 6 6 3 3 2 3 4 4 4 4 5 4 4 3 2 3 4 5 4 5 4 3 3 4 3 5 4 5 5 5 5 5 5 5 5 6 6 6 6 5 5 6 6 5 5 3 4 4 4 3 4 3 3 1 1 1 2 3 3 2 2 1 0 0 0 1 1 3 5 2 0 0 1 3 2 3 3
8 8 8 7 6 6 6 5 6 5 6 5 3 3 4 2 4 4 3 3 4 2 2 2 3 3 5 3 3 3 3 3 4 5 5 5 5 5 5 5 5 5 5 6 6 6 6 5 5 5 6 5 4 4 4 3 3 2 2 2 1 2 1 0 0 0 1 2 2 2 1 1 1 1 2 4 5 2 0 1 2 3 3 3 4
8 8 7 6 7 7 7 6 7 6 6 6 5 3 3 4 4 4 4 3 2 1 2 1 2 3 5 4 3 4 3 3 4 4 6 5 5 5 5 5 5 5 5 6 6 7 6 5 5 5 4 4 4 4 4 4 3 1 2 2 1 1 1 0 0 0 0 0 3 3 3 3 2 2 3 4 4 3 2 2 3 3 3 3 4
8 7 6 6 6 7 7 7 6 5 5 6 4 4 4 5 3 3 5 5 4 5 2 3 4 4 4 3 3 2 3 2 3 4 5 5 5 6 5 5 5 5 6 6 7 7 5 4 4 4 4 4 4 4 3 4 4 4 5 4 5 4 4 3 1 0 0 1 3 5 4 5 3 3 4 4 4 4 3 3 3 3 3 4 4
7 7 7 7 6 6 6 6 7 7 6 6 4 4 4 3 3 5 6 5 4 4 2 3 3 3 4 2 2 1 1 2 3 5 5 5 5 5 5 5 6 6 6 7 7 6 5 4 4 4 4 4 3 3 3 3 3 4 4 4 3 4 4 4 1 1 1 2 4 5 5 5 4 3 4 5 4 4 4 4 3 3 4 4 4
6 6 6 6 6 6 6 6 7 6 6 5 5 5 5 3 4 4 4 4 4 4 4 3 3 3 2 2 2 2 2 4 3 5 5 5 5 4 5 5 7 7 6 7 7 7 5 4 4 3 3 3 3 3 3 3 4 4 3 3 4 5 5 5 3 1 2 3 5 5 5 5 4 4 5 5 5 4 4 4 4 4 4 4 4
5 5 5 6 6 6 6 6 5 6 6 6 5 5 4 5 5 5 5 5 4 3 2 3 3 3 3 2 3 2 1 2 3 4 6 5 5 4 5 5 6 7 7 7 7 6 5 4 4 4 3 3 3 3 3 4 3 3 3 3 5 5 5 5 5 4 3 3 5 5 6 5 5 4 4 5 5 5 5 5 4 4 4 4 4
6 6 6 5 6 6 5 5 5 5 5 5 5 5 5 5 5 5 5 5 5 4 3 3 3 2 2 2 4 1 1 2 3 3 4 4 4 4 5 5 6 7 7 7 7 6 5 5 4 4 3 3 3 3 3 3 3 3 4 5 5 5 5 5 3 6 6 5 4 5 6 5 5 6 5 5 5 5 5 6 5 5 4 4 4
Wind_Direction
230 235 233 233 233 230 228 223 222 219 216 215 218 224 228 232 239 251 263 259 256 270 280 288 291 289 287 286 284 284 271 251 232 221 221 222 212 209 212 219 224 220 210 215 222 248 257 229 218 222 262 311 298 292 316 332 317 301 286 295 296 285 286 274 272 283 283 304 297 308 310 307 301 274 294 316 313 314 316 317 315 312 306 301 300
229 229 228 228 227 228 227 223 222 221 220 212 217 221 223 229 241 248 249 256 263 281 289 295 290 286 286 283 280 280 282 275 257 248 242 234 236 223 218 219 221 225 223 222 221 207 213 221 225 229 236 254 268 292 297 304 303 299 290 284 273 274 279 295 292 284 290 292 313 298 291 298 301 323 310 301 304 309 312 309 306 300 299 298 298
228 227 227 229 230 228 225 223 221 222 217 218 224 221 221 228 236 242 247 258 275 285 291 290 290 293 291 296 313 314 311 313 304 287 270 260 259 255 245 237 237 238 235 228 223 220 217 214 222 201 197 221 267 278 297 300 296 308 302 291 291 284 282 286 291 291 289 286 283 302 313 306 298 306 309 304 291 291 290 300 302 299 295 293 290
234 229 229 230 229 228 229 225 222 221 222 228 240 235 239 242 250 254 244 225 247 273 278 279 286 287 295 308 307 305 315 324 326 324 314 303 284 271 263 254 248 244 238 233 234 227 218 226 228 208 205 215 221 216 225 267 278 268 282 308 301 304 301 287 275 279 287 294 301 292 296 303 298 294 292 284 275 271 273 282 289 293 291 283 275
240 234 229 230 231 230 230 226 225 224 229 232 234 232 240 248 258 263 242 236 258 270 269 272 276 277 279 280 288 303 313 316 318 318 318 322 321 318 309 292 271 255 247 245 240 235 235 224 231 224 229 235 238 221 225 225 237 258 265 270 292 299 305 303 297 293 293 288 292 290 289 275 279 282 285 303 303 287 280 272 268 270 277 272 264
241 234 227 229 233 234 234 231 232 232 236 237 235 236 237 246 256 266 233 241 258 260 265 269 270 278 281 285 289 296 303 309 314 317 320 321 321 320 324 325 321 315 296 288 277 267 258 248 242 234 237 233 241 237 237 238 246 258 273 277 279 283 284 284 282 283 283 280 280 289 281 285 280 271 267 267 283 288 277 265 258 259 263 272 264
251 237 230 228 228 230 233 238 241 242 236 232 236 238 238 238 247 240 210 226 241 250 257 269 274 277 286 295 296 295 300 319 326 323 321 317 315 318 319 315 313 309 304 294 291 279 269 266 259 248 246 237 241 238 243 252 251 255 253 263 262 263 263 269 276 278 273 278 278 274 279 276 280 283 285 267 259 258 270 276 274 238 242 245 266
254 241 234 234 236 239 247 252 254 253 242 238 239 240 236 232 220 199 200 233 243 243 246 257 265 273 284 292 295 310 318 320 319 314 307 304 300 297 295 293 294 298 301 299 290 280 273 268 260 252 241 239 228 241 233 249 249 258 252 264 273 271 264 258 264 277 282 281 275 276 266 274 277 278 295 321 314 295 295 292 282 282 266 252 239
261 249 241 242 248 259 263 256 252 249 251 256 253 245 234 217 205 207 223 240 242 239 244 246 253 263 271 271 275 291 303 299 298 294 297 295 294 289 285 281 279 278 278 277 277 284 290 285 275 267 255 255 252 252 250 253 249 255 255 249 256 257 261 265 268 273 277 286 292 299 303 298 290 291 291 283 277 274 267 269 274 272 272 270 260
265 247 244 246 254 256 254 243 229 241 259 261 252 240 229 222 220 225 228 226 228 235 241 244 243 250 259 262 264 271 272 273 275 279 275 270 265 264 267 267 265 265 266 269 271 269 269 268 265 265 265 260 259 261 263 261 259 255 251 236 248 254 259 264 263 263 272 273 275 278 279 289 301 299 301 295 300 328 333 318 302 306 309 312 289
273 273 272 279 286 275 256 253 260 257 250 246 243 236 235 225 221 228 231 224 223 226 225 230 235 243 249 248 251 251 250 253 268 270 273 273 272 266 256 251 245 249 250 249 252 252 247 247 247 249 250 258 261 260 259 260 259 257 256 253 248 244 245 250 249 252 260 264 271 278 287 288 294 311 306 304 304 318 313 310 307 306 308 296 294
293 292 295 300 297 292 281 270 259 255 246 241 237 231 228 226 222 217 217 224 224 213 216 225 231 236 239 239 236 237 246 252 267 269 270 273 274 269 260 255 249 241 239 246 253 257 256 254 250 246 243 239 238 244 254 258 260 262 263 262 260 257 254 250 254 256 253 262 260 251 252 254 267 254 265 281 306 300 307 309 304 306 306 300 296
304 302 300 293 288 291 292 287 281 274 263 249 235 230 231 229 218 209 215 221 228 220 218 219 231 233 231 234 238 236 239 247 263 268 272 276 277 275 270 265 259 250 242 243 244 249 258 264 262 251 241 251 257 261 261 261 263 262 261 261 262 263 263 260 257 254 247 253 254 253 241 245 248 254 279 306 314 306 308 301 313 307 308 301 300
322 318 316 312 313 304 297 287 279 273 266 255 243 240 238 230 216 201 201 221 228 229 227 234 242 241 235 237 239 230 237 237 261 267 272 275 275 273 268 267 266 266 264 259 255 251 248 246 247 253 254 256 253 257 263 263 263 263 265 271 271 267 274 277 282 284 282 279 275 272 263 245 257 255 257 279 284 288 290 290 292 295 307 295 295
322 319 320 323 322 315 304 293 283 275 264 254 246 244 235 229 210 201 199 214 224 224 231 245 250 250 243 233 230 234 226 245 262 266 270 274 274 274 266 259 252 249 249 248 253 260 265 269 271 272 267 259 248 244 239 234 238 248 257 259 260 259 261 266 272 274 273 275 276 275 276 273 273 271 266 256 255 260 264 273 279 284 287 294 293
320 320 317 315 309 302 294 287 281 274 266 259 255 254 245 219 212 208 205 210 220 229 250 244 252 250 241 230 233 239 230 251 263 267 272 277 278 276 273 270 274 270 268 270 268 267 265 263 263 260 258 259 262 264 263 261 258 257 261 265 266 268 265 262 268 267 262 256 253 258 262 261 260 258 252 245 245 252 260 263 268 271 277 278 277
314 314 308 302 294 289 288 285 280 279 265 255 248 240 226 214 233 165 252 244 247 247 251 255 256 259 253 243 240 244 235 251 263 269 273 278 281 284 285 284 280 281 272 269 264 257 259 265 265 265 262 257 259 259 258 258 260 258 260 263 262 260 260 251 261 266 268 266 265 263 262 261 260 259 256 253 247 232 228 240 243 243 251 261 267
311 306 300 297 298 297 291 287 280 269 267 263 278 287 108 99 168 187 228 247 252 247 253 256 256 254 254 254 247 252 250 239 259 267 271 276 279 274 263 254 248 248 250 247 247 248 244 251 250 245 247 248 253 257 257 257 257 257 255 257 258 255 253 244 237 250 261 265 265 267 268 270 272 275 274 271 264 255 244 239 238 230 237 239 252
303 300 302 308 306 301 296 289 288 306 320 319 350 333 308 258 223 196 228 245 250 251 254 256 255 252 250 254 256 260 255 240 254 261 268 276 280 278 273 266 264 260 261 262 258 262 261 261 260 259 254 250 256 256 256 253 251 249 248 251 253 256 259 259 258 257 256 258 264 269 273 275 277 278 278 281 283 285 274 264 272 283 278 255 249
303 312 321 317 312 302 293 304 336 352 330 321 309 240 212 215 221 227 239 234 252 256 260 259 258 255 253 253 258 256 257 251 253 264 272 275 275 274 256 249 249 245 242 245 252 250 249 248 253 260 263 263 260 258 257 255 249 238 233 238 241 247 237 238 239 241 245 243 246 245 248 249 253 255 257 260 263 261 271 273 266 255 252 262 267
333 327 321 319 321 330 348 357 351 337 319 289 276 251 215 232 236 243 244 253 258 261 261 264 267 270 271 271 268 259 246 262 262 270 273 274 277 278 273 264 262 258 250 249 249 255 259 258 252 254 260 260 260 260 262 264 263 260 252 243 238 244 242 238 243 241 241 242 244 244 243 241 241 242 244 243 238 235 238 248 254 247 247 253 253
331 345 357 359 349 343 341 333 332 318 301 274 253 249 245 237 237 239 247 250 254 256 255 257 262 265 265 264 261 262 263 262 261 260 268 273 277 279 277 265 261 249 252 244 244 241 244 249 247 259 263 262 262 261 261 262 263 261 258 261 261 260 258 248 244 242 244 245 245 242 238 232 234 236 239 237 232 229 223 228 232 235 236 240 243
355 356 347 339 330 324 317 314 309 302 284 257 232 246 244 248 249 233 238 243 247 252 252 257 262 264 263 261 260 261 257 253 257 258 263 270 274 278 278 278 275 273 262 243 231 235 233 238 241 255 261 263 263 263 263 262 262 258 261 263 263 263 262 267 262 255 262 264 260 255 245 237 234 235 232 229 228 224 224 220 225 229 230 229 229
349 342 332 321 318 312 305 299 292 283 266 253 248 240 240 236 243 245 247 245 245 247 246 244 244 245 246 250 246 242 241 240 251 261 269 275 279 279 280 278 276 264 257 252 253 250 248 251 254 262 264 264 265 267 270 273 271 269 268 269 273 281 287 254 273 276 274 274 269 257 244 233 236 240 233 230 230 229 229 229 229 228 231 235 236
342 331 319 310 303 300 294 287 278 264 255 253 263 251 253 239 247 243 245 249 247 249 252 250 251 249 246 250 260 273 273 277 274 280 284 288 290 290 289 287 285 285 284 286 286 279 275 269 267 268 267 266 267 269 271 275 283 289 289 289 286 273 269 261 256 268 274 275 274 266 257 247 240 234 239 238 252 259 261 264 260 256 245 245 249
331 319 310 306 302 298 291 283 273 263 263 261 252 241 231 237 239 241 239 243 242 246 247 241 244 250 263 271 278 281 287 287 284 284 281 278 279 282 284 285 281 276 272 263 266 268 268 268 271 271 271 270 271 268 271 270 272 271 272 273 272 278 267 269 264 256 255 261 267 270 263 281 285 283 281 303 334 305 296 291 289 280 277 273 267
324 315 308 305 300 293 288 285 279 271 264 260 246 235 238 236 239 241 242 251 259 262 263 267 286 306 303 305 297 292 285 285 279 278 274 271 270 272 287 319 336 338 336 321 301 280 273 267 257 257 259 263 263 262 262 263 266 270 269 258 243 242 249 246 243 241 249 258 280 288 297 294 297 307 303 295 278 277 268 269 274 276 269 256 256
315 307 303 301 295 289 282 283 282 272 260 259 267 276 262 233 231 235 234 242 252 285 347 337 319 308 306 297 296 295 290 289 286 279 279 290 293 294 312 323 317 320 317 312 304 291 287 296 301 312 302 296 285 284 277 266 260 258 253 240 236 240 244 246 245 255 264 265 272 288 298 295 286 270 266 258 252 251 248 253 256 267 269 278 273
307 301 298 296 293 290 288 284 277 268 270 281 278 258 249 267 273 293 352 86 71 278 277 286 289 285 280 282 288 287 284 281 278 292 288 283 278 271 267 282 299 293 287 288 287 286 278 278 295 298 303 294 286 270 255 249 246 241 241 239 236 237 236 232 277 271 271 274 274 266 262 264 263 266 265 269 261 253 248 256 260 258 265 262 265
301 298 298 298 297 297 302 308 306 300 291 273 263 268 263 260 242 208 268 289 282 278 274 259 255 252 259 255 245 268 268 267 280 283 282 284 286 288 289 289 286 281 276 276 273 268 265 262 264 271 279 277 271 266 257 239 239 242 239 238 230 221 228 241 234 245 247 254 264 295 299 301 300 290 283 273 275 270 258 247 255 248 261 262 263
308 301 303 302 304 310 308 299 286 285 287 279 266 256 279 303 273 269 263 266 275 280 282 285 289 291 290 288 283 282 283 287 289 290 289 286 285 286 285 281 280 280 284 287 287 285 286 276 271 265 261 258 258 260 259 247 234 231 232 218 173 174 178 180 258 283 315 321 321 308 299 299 287 286 278 269 264 268 279 272 265 264 250 256 261
307 303 299 298 301 296 292 288 286 281 275 268 263 251 238 256 299 283 284 290 298 304 304 300 296 294 293 292 291 284 283 285 287 290 290 288 287 290 298 304 302 297 295 295 289 284 274 269 264 262 267 271 273 270 265 253 228 214 206 176 236 237 149 260 200 96 323 315 301 295 286 280 272 270 269 269 264 266 272 284 277 268 264 259 255
304 301 296 292 294 297 301 304 293 277 260 251 251 239 235 253 277 308 311 306 302 301 298 300 303 304 302 300 296 294 295 296 296 295 298 302 307 307 301 294 294 293 293 288 281 281 270 262 259 255 254 252 253 256 260 252 229 208 176 170 179 224 204 203 126 172 257 265 267 271 272 267 270 274 279 279 278 276 270 269 269 258 258 259 260
302 295 292 290 289 285 282 279 279 275 262 248 215 126 5 288 276 280 293 291 286 286 290 296 301 302 301 299 298 295 295 299 305 305 302 300 297 297 295 289 284 282 278 272 269 264 262 256 260 258 249 241 247 256 258 249 214 182 168 161 185 193 219 196 171 245 258 259 248 256 270 276 280 283 279 278 274 270 272 264 260 259 258 251 259
300 294 297 296 283 275 268 268 276 273 261 230 67 62 314 340 307 283 269 274 279 290 296 293 294 300 301 301 301 300 300 298 297 301 305 303 301 297 293 288 282 273 269 262 259 254 253 256 258 266 272 276 271 260 251 221 191 159 159 172 180 177 188 174 207 222 232 248 265 272 268 276 281 282 284 281 281 274 266 271 272 264 265 264 257
301 297 294 292 290 290 291 280 263 282 22 50 57 35 321 288 269 260 261 269 281 287 293 285 286 299 302 299 302 304 301 307 316 315 309 304 297 290 283 270 257 253 254 256 254 259 257 252 247 252 265 276 291 302 313 331 158 168 175 155 173 176 183 209 226 245 280 303 280 283 287 282 279 278 280 273 265 267 266 262 265 269 269 267 258
306 299 292 287 286 290 301 307 326 10 46 35 336 280 263 260 258 262 266 272 278 277 277 293 304 302 295 304 298 307 326 326 321 315 310 306 310 309 267 248 242 259 266 278 282 288 295 297 303 313 321 323 324 319 323 320 329 358 149 142 156 162 216 208 196 187 266 289 283 283 279 276 277 273 266 270 275 272 271 270 272 267 265 275 281
304 301 300 309 304 311 315 312 330 359 56 252 251 250 257 257 258 261 268 275 272 280 293 298 300 291 300 283 329 351 332 329 323 319 321 325 329 326 331 333 316 284 271 268 282 295 297 299 310 310 304 308 309 317 320 322 328 331 255 203 193 193 217 216 235 215 216 239 259 268 276 276 278 281 283 280 280 278 269 271 294 295 304 318 334
305 312 318 334 331 316 294 305 312 323 310 297 284 271 270 265 274 276 279 275 288 293 291 285 277 276 281 304 343 330 352 325 321 311 316 316 314 321 323 328 326 321 319 316 317 320 319 317 313 310 306 305 306 309 315 311 312 302 282 173 197 218 207 210 237 232 227 240 263 293 297 297 296 293 285 280 281 290 317 9 350 333 330 329 329
324 317 315 316 309 303 297 302 294 283 273 267 266 262 265 272 273 279 284 290 286 284 279 281 284 287 294 334 320 300 288 296 306 304 303 302 306 320 329 317 313 309 314 318 320 315 315 313 310 311 309 314 313 312 305 304 314 314 324 36 264 266 249 196 168 152 237 274 287 286 298 294 303 295 319 33 346 29 57 24 354 327 320 331 334
316 315 314 314 310 310 298 277 273 267 272 273 273 278 285 289 291 295 293 294 289 290 284 279 278 289 318 309 302 300 302 319 306 299 289 289 301 316 307 301 302 315 317 313 307 307 316 322 323 319 320 317 314 322 330 331 331 327 328 315 299 258 162 149 133 191 196 238 244 300 318 335 327 334 347 297 73 83 48 43 248 219 9 339 5
324 318 311 303 301 294 292 291 291 298 296 291 288 276 272 293 307 316 298 290 289 283 281 287 296 304 309 304 303 305 326 334 302 283 283 294 301 296 300 305 310 305 308 311 318 325 320 312 308 311 310 308 321 328 332 330 333 323 309 298 277 282 296 217 192 178 204 236 186 39 327 300 287 304 323 94 80 42 16 299 268 38 47 36 31
318 308 303 299 296 293 296 300 300 294 288 299 313 349 352 335 310 289 284 277 276 281 289 301 300 299 292 300 307 314 316 295 285 302 315 314 310 306 308 311 312 320 321 319 315 313 307 298 297 298 293 301 318 310 300 297 312 312 325 332 327 335 339 177 174 219 228 195 140 159 285 305 345 348 320 84 71 63 338 264 360 59 52 46 42
313 307 304 304 314 318 322 319 314 310 309 324 333 328 303 286 275 271 270 272 277 276 287 288 292 296 293 304 309 313 297 301 312 306 309 308 306 304 308 310 316 316 317 320 316 307 302 308 307 297 296 296 290 295 299 284 286 311 323 335 345 327 272 227 215 219 205 177 159 171 185 237 264 97 68 75 79 78 277 343 51 62 58 54 60
306 304 305 311 316 317 313 313 314 322 330 333 326 304 299 297 293 280 271 269 282 293 300 292 290 298 303 310 312 299 296 302 314 323 309 297 297 306 312 311 307 314 320 313 305 302 301 299 295 301 305 306 326 330 304 294 309 325 329 352 6 9 358 43 96 190 137 148 172 161 179 162 131 121 94 87 90 105 139 64 67 74 67 57 61
302 298 304 311 314 313 317 316 317 317 314 309 305 312 307 311 297 298 297 291 287 285 280 292 311 306 300 297 295 309 310 318 309 298 301 307 313 306 299 297 311 318 313 310 305 301 294 286 285 284 294 312 322 320 311 310 308 327 328 347 39 301 283 237 300 21 28 148 152 145 126 93 81 84 105 97 94 89 77 54 54 54 69 71 63
303 304 316 317 317 317 317 313 313 310 310 304 300 292 286 279 283 298 306 300 286 262 268 277 281 278 286 294 296 297 303 312 307 307 302 303 298 298 300 313 320 316 318 310 303 297 301 315 325 326 312 297 301 307 328 337 352 354 357 16 9 356 341 352 354 344 155 113 131 122 125 130 127 114 102 100 87 89 89 73 72 75 65 69 76
310 318 318 319 321 317 313 314 310 310 308 308 306 306 303 307 301 293 280 277 279 275 260 255 258 268 278 283 292 299 316 310 307 304 304 300 303 308 328 330 326 323 316 312 309 311 316 313 317 317 315 316 332 329 341 345 350 4 14 16 353 324 322 331 339 14 59 94 101 118 125 124 118 116 111 107 109 116 110 105 86 71 72 72 70
313 314 317 317 313 313 310 312 315 317 309 308 308 309 307 305 301 297 296 288 277 271 258 260 268 274 276 277 282 301 301 311 309 306 308 308 315 324 335 334 328 320 319 317 311 307 313 322 320 318 325 322 330 335 353 357 359 8 14 356 327 333 351 8 31 45 82 90 96 95 96 100 107 109 109 108 110 111 103 97 93 92 83 76 75
307 311 313 315 309 306 307 307 307 307 313 317 322 317 317 313 309 302 293 291 289 295 304 296 277 267 262 278 296 288 294 295 302 307 305 306 312 334 344 331 327 323 321 315 310 315 323 327 326 337 332 328 339 345 5 13 10 359 354 343 349 357 8 14 21 42 73 83 96 103 107 105 102 99 99 105 108 112 107 100 98 94 93 87 75
310 313 310 307 305 305 307 309 310 316 321 318 318 317 317 311 305 301 305 310 310 307 301 298 290 306 303 280 271 271 276 290 291 296 305 308 325 346 342 332 326 321 317 319 321 324 330 331 338 331 335 359 354 9 24 11 344 347 8 11 9 17 26 30 45 73 86 89 93 96 102 110 115 114 108 108 106 103 105 103 91 90 83 81 75